Powrót do katalogu

STARLINK-5412

AktywnyŁącznośćVLEO
NORAD 54806·PAYLOAD·🇺🇸 United States

Wystrzelony Dec 17, 2022 z Cape Canaveral Space Force Station

Loading…

Następne Przeloty (najbliższe 24 godziny)

TLE

ŚwieżeSource: CelesTrak SupGP

Epoka: Sep 15, 2026, 02:39 UTC

1 54806C 22175BA  26258.11090278 -.00026460  00000+0 -80289-3 0  2588
2 54806  53.1573 243.1565 0001364  90.3066 118.5141 15.33562543    12

Śledź STARLINK-5412 w czasie rzeczywistym z AllMySat

Download on the App Store